FW2323 Weather Reports


time (UTC)temp
F
wind
direction
speed
knots
gust
knots
rain 1hr
in
rain 24hr
in
rain mn
in
humidity
%
barometer
mb
20260505201300 54 199 0.0 0.0 0.00 0.00 0.00 93 1014.7
20260505200801 54 194 0.0 0.0 0.00 0.00 0.00 93 1014.7
20260505200300 54 184 0.0 0.0 0.00 0.00 0.00 93 1014.7
20260505195801 55 184 0.0 0.0 0.00 0.00 0.00 93 1014.6
20260505195300 55 184 0.0 0.0 0.00 0.00 0.00 93 1014.6
20260505194801 55 186 0.0 0.0 0.00 0.00 0.00 94 1014.6
20260505194301 55 186 0.0 0.0 0.00 0.00 0.00 94 1014.6
20260505193300 55 186 0.0 0.0 0.00 0.00 0.00 93 1014.6
20260505192300 55 144 0.0 0.0 0.00 0.00 0.00 93 1014.5
20260505191800 55 139 0.0 0.0 0.00 0.00 0.00 93 1014.5
20260505191302 55 139 0.0 0.0 0.00 0.00 0.00 93 1014.4
20260505190800 55 139 0.0 0.0 0.00 0.00 0.00 93 1014.4
20260505190300 55 139 0.0 0.0 0.00 0.00 0.00 93 1014.4
20260505185800 55 139 0.0 0.0 0.00 0.00 0.00 93 1014.3
20260505184801 55 139 0.0 0.0 0.00 0.00 0.00 92 1014.3
20260505184301 55 139 0.0 0.0 0.00 0.00 0.00 92 1014.3
20260505183300 55 139 0.0 0.0 0.00 0.00 0.00 92 1014.3
20260505182800 56 139 0.0 0.0 0.00 0.00 0.00 92 1014.1
20260505182300 56 139 0.0 0.0 0.00 0.00 0.00 92 1014.1
20260505175301 56 135 0.0 0.0 0.00 0.00 0.00 92 1014.0
20260505174801 56 135 0.0 0.0 0.00 0.00 0.00 92 1014.0
20260505174302 56 132 0.0 0.0 0.00 0.00 0.00 91 1014.0
20260505173801 56 132 0.0 0.0 0.00 0.00 0.00 92 1014.0
20260505172800 56 132 0.0 0.0 0.00 0.00 0.00 91 1014.1
20260505172300 56 132 0.0 0.0 0.00 0.00 0.00 91 1014.1
20260505171801 56 132 0.0 0.0 0.00 0.00 0.00 91 1014.1
20260505171300 56 132 0.0 0.0 0.00 0.00 0.00 91 1014.1
20260505170800 56 132 0.0 0.0 0.00 0.00 0.00 91 1014.1
20260505170300 56 132 0.0 0.0 0.00 0.00 0.00 90 1014.1
20260505165800 56 132 0.0 0.0 0.00 0.00 0.00 90 1014.2
20260505165305 56 132 0.0 0.0 0.00 0.00 0.00 90 1014.2
20260505164801 56 132 0.0 0.0 0.00 0.00 0.00 89 1014.2
20260505164301 56 133 0.0 0.0 0.00 0.00 0.00 89 1014.3
20260505163800 56 134 0.0 0.0 0.00 0.00 0.00 89 1014.3
20260505163301 56 134 0.0 0.0 0.00 0.00 0.00 89 1014.3
20260505162800 57 134 0.0 0.0 0.00 0.00 0.00 88 1014.3
20260505162300 57 134 0.0 0.0 0.00 0.00 0.00 88 1014.3
20260505161800 57 134 0.0 1.7 0.00 0.00 0.00 87 1014.3
20260505161302 57 81 0.0 1.7 0.00 0.00 0.00 87 1014.4
20260505160301 58 164 0.0 0.0 0.00 0.00 0.00 87 1014.4
20260505153301 58 121 0.0 0.0 0.00 0.00 0.00 84 1014.3
20260505152801 58 122 0.0 0.0 0.00 0.00 0.00 83 1014.4
20260505152304 58 122 0.0 0.0 0.00 0.00 0.00 82 1014.4
20260505151802 58 133 0.0 0.0 0.00 0.00 0.00 81 1014.4
20260505151300 58 202 0.0 0.0 0.00 0.00 0.00 82 1014.4
20260505150801 58 202 0.0 0.0 0.00 0.00 0.00 83 1014.4
20260505150300 58 202 0.0 0.0 0.00 0.00 0.00 84 1014.4
20260505140302 57 89 0.0 0.0 0.00 0.00 0.00 90 1014.7
20260505130301 56 9 0.0 0.0 0.00 0.00 0.00 87 1015.2
20260505124801 56 8 0.0 0.0 0.00 0.00 0.00 88 1015.2
20260505124301 56 8 0.0 0.0 0.00 0.00 0.00 88 1015.4
20260505123801 56 8 0.0 0.0 0.00 0.00 0.00 88 1015.4
20260505123301 56 8 0.0 0.0 0.00 0.00 0.00 89 1015.4
20260505122801 56 8 0.0 0.0 0.00 0.00 0.00 90 1015.4
20260505122301 56 8 0.0 0.0 0.00 0.00 0.00 89 1015.4
20260505121801 56 8 0.0 0.0 0.00 0.00 0.00 90 1015.4
20260505121301 56 8 0.0 0.0 0.00 0.00 0.00 91 1015.4
20260505120800 56 8 0.0 0.0 0.00 0.00 0.00 91 1015.4
20260505120301 55 8 0.0 0.0 0.00 0.00 0.00 91 1015.4
20260505115801 55 8 0.0 0.0 0.00 0.00 0.00 91 1015.4
20260505114801 55 8 0.0 0.0 0.00 0.00 0.00 91 1015.4
20260505114301 55 8 0.0 0.0 0.00 0.00 0.00 90 1015.3
20260505113301 55 8 0.0 0.0 0.00 0.00 0.00 90 1015.3
20260505112801 55 8 0.0 0.0 0.00 0.00 0.00 90 1015.5
20260505112301 55 8 0.0 2.6 0.00 0.00 0.00 90 1015.5
20260505111801 55 8 0.0 0.0 0.00 0.00 0.00 91 1015.5
20260505111300 55 8 0.0 1.7 0.00 0.00 0.00 92 1015.5
20260505110302 56 18 0.0 0.0 0.00 0.00 0.00 92 1015.5
20260505101801 56 192 0.0 0.0 0.00 0.00 0.00 88 1015.7
20260505100801 56 120 0.0 0.0 0.00 0.00 0.00 90 1015.5
20260505095301 57 109 0.0 0.0 0.00 0.00 0.00 89 1015.5
20260505094801 57 112 0.0 0.0 0.00 0.00 0.00 90 1015.5
20260505093801 56 112 0.0 0.0 0.00 0.00 0.00 88 1015.6
20260505093301 56 111 0.0 0.0 0.00 0.00 0.00 87 1015.6
20260505092802 56 105 0.0 0.0 0.00 0.00 0.00 86 1015.5
20260505092301 56 103 0.0 0.0 0.00 0.00 0.00 86 1015.5
20260505091302 56 107 0.0 0.0 0.00 0.00 0.00 85 1015.5
20260505090801 56 106 0.0 0.0 0.00 0.00 0.00 85 1015.5
20260505090301 56 107 0.0 0.0 0.00 0.00 0.00 84 1015.5
20260505085801 56 107 0.0 0.0 0.00 0.00 0.00 84 1015.6
20260505084301 56 107 0.0 0.0 0.00 0.00 0.00 81 1015.6
20260505083302 57 133 0.0 0.0 0.00 0.00 0.00 81 1015.6
20260505082802 57 133 0.0 0.0 0.00 0.00 0.00 80 1015.5
20260505082300 57 133 0.0 0.0 0.00 0.00 0.00 80 1015.5
20260505081801 57 136 0.0 0.0 0.00 0.00 0.00 81 1015.5
20260505080802 58 134 0.0 0.0 0.00 0.00 0.00 78 1015.5
20260505080302 58 134 0.0 0.0 0.00 0.00 0.00 77 1015.5
20260505075301 58 244 0.0 0.0 0.00 0.00 0.00 78 1015.3
20260505074801 58 244 0.0 1.7 0.00 0.00 0.00 77 1015.3
20260505074302 58 306 1.7 0.0 0.00 0.00 0.00 75 1015.0
20260505073802 58 336 1.7 1.7 0.00 0.00 0.00 73 1015.0
20260505073301 58 322 1.7 5.2 0.00 0.00 0.00 71 1015.0
20260505072801 58 22 1.7 5.2 0.00 0.00 0.00 69 1014.9
20260505072301 58 19 0.9 5.2 0.00 0.00 0.00 68 1014.9
20260505071802 59 32 0.9 5.2 0.00 0.00 0.00 68 1014.9
20260505070801 59 24 0.9 4.3 0.00 0.00 0.00 67 1014.8
20260505065801 59 352 1.7 5.2 0.00 0.00 0.00 65 1014.9
20260505065303 59 30 4.3 5.2 0.00 0.00 0.00 64 1014.9
20260505064801 59 14 4.3 6.1 0.00 0.00 0.00 63 1014.9
20260505064301 59 331 1.7 7.0 0.00 0.00 0.00 63 1014.9
20260505063801 58 305 1.7 7.8 0.00 0.00 0.00 64 1014.9
20260505062801 58 272 0.9 6.1 0.00 0.00 0.00 65 1014.9
20260505062301 58 275 0.9 6.1 0.00 0.00 0.00 65 1014.9
20260505061801 58 295 0.9 6.1 0.00 0.00 0.00 65 1014.9
20260505061303 58 318 0.0 0.0 0.00 0.00 0.00 65 1014.9
20260505060802 58 23 0.0 5.2 0.00 0.00 0.00 66 1014.9
20260505060301 58 16 0.0 4.3 0.00 0.00 0.00 65 1014.9
20260505055802 58 259 0.0 0.0 0.00 0.00 0.00 65 1014.8
20260505055301 57 303 0.0 0.0 0.00 0.00 0.00 66 1014.8
20260505054301 58 31 0.0 0.0 0.00 0.00 0.00 65 1014.7
20260505053801 58 312 0.0 0.0 0.00 0.00 0.00 65 1014.7
20260505053302 58 303 0.9 0.0 0.00 0.00 0.00 65 1014.7
20260505052801 58 307 0.9 0.0 0.00 0.00 0.00 65 1014.7
20260505052304 58 298 1.7 5.2 0.00 0.00 0.00 65 1014.7
20260505051802 58 274 1.7 4.3 0.00 0.00 0.00 66 1014.7
20260505051301 58 224 0.9 4.3 0.00 0.00 0.00 65 1014.7
20260505050802 58 250 0.9 4.3 0.00 0.00 0.00 66 1014.7
20260505050301 57 254 0.0 6.1 0.00 0.00 0.00 66 1014.7
20260505041301 57 304 1.7 0.0 0.00 0.00 0.00 66 1014.8
20260505040803 57 301 1.7 5.2 0.00 0.00 0.00 66 1014.8
20260505040302 57 300 0.0 7.0 0.00 0.00 0.00 67 1014.8
20260505035801 57 299 0.0 0.0 0.00 0.00 0.00 66 1014.8
20260505035301 57 301 0.0 0.0 0.00 0.00 0.00 65 1014.8
20260505034802 57 301 0.0 0.0 0.00 0.00 0.00 65 1014.8
20260505034302 57 301 0.0 0.0 0.00 0.00 0.00 64 1014.8
20260505033801 57 301 0.0 0.0 0.00 0.00 0.00 64 1014.8
20260505033302 57 300 0.0 0.0 0.00 0.00 0.00 63 1014.8
20260505032801 58 6 0.0 0.0 0.00 0.00 0.00 63 1014.9
20260505032304 57 320 0.9 0.0 0.00 0.00 0.00 63 1014.9
20260505031801 57 333 0.9 0.0 0.00 0.00 0.00 63 1014.9
20260505031302 57 318 0.9 1.7 0.00 0.00 0.00 64 1015.1
20260505030801 56 311 0.9 6.1 0.00 0.00 0.00 65 1015.1
20260505030303 56 299 0.0 5.2 0.00 0.00 0.00 66 1015.1
20260505025301 55 270 0.0 0.0 0.00 0.00 0.00 67 1015.3
20260505024803 55 302 0.0 0.0 0.00 0.00 0.00 67 1015.3
20260505024301 55 303 0.0 0.0 0.00 0.00 0.00 67 1015.2
20260505023802 55 290 0.0 0.0 0.00 0.00 0.00 67 1015.2
20260505023302 55 290 0.0 0.0 0.00 0.00 0.00 66 1015.2
20260505022304 55 290 0.0 0.0 0.00 0.00 0.00 66 1015.3
20260505021802 55 290 0.0 1.7 0.00 0.00 0.00 65 1015.3
20260505021301 55 290 0.0 0.0 0.00 0.00 0.00 65 1015.5
20260505015802 56 295 0.0 0.0 0.00 0.00 0.00 63 1015.5
20260505015303 56 296 0.0 0.0 0.00 0.00 0.00 63 1015.5
20260505014801 57 298 0.0 0.0 0.00 0.00 0.00 62 1015.5
20260505013802 57 302 0.9 0.0 0.00 0.00 0.00 60 1015.7
20260505012803 57 328 0.0 4.3 0.00 0.00 0.00 61 1015.8
20260505011801 56 296 0.0 0.0 0.00 0.00 0.00 63 1015.8
20260505010802 56 200 0.0 0.0 0.00 0.00 0.00 64 1016.0
20260505010302 56 230 0.0 0.0 0.00 0.00 0.00 64 1016.0
20260505005802 56 225 0.0 0.0 0.00 0.00 0.00 65 1016.2
20260505005303 56 216 0.0 0.0 0.00 0.00 0.00 66 1016.2
20260505004802 55 260 0.0 0.0 0.00 0.00 0.00 67 1016.2
20260505004302 55 225 0.0 0.0 0.00 0.00 0.00 67 1016.4
20260505003802 55 226 0.0 0.0 0.00 0.00 0.00 67 1016.4
20260505003301 56 227 0.0 0.0 0.00 0.00 0.00 67 1016.4
20260505002803 56 225 0.0 0.0 0.00 0.00 0.00 66 1016.4
20260505002304 57 225 0.0 0.0 0.00 0.00 0.00 64 1016.4
20260505001802 57 226 0.0 0.0 0.00 0.00 0.00 64 1016.4
20260505001301 57 226 0.0 0.0 0.00 0.00 0.00 63 1016.6
20260505000802 57 226 0.0 0.0 0.00 0.00 0.00 63 1016.6
20260505000302 57 226 0.0 0.0 0.00 0.00 0.00 62 1016.6
20260504235304 57 226 0.0 0.0 0.00 0.00 0.00 63 1016.5
20260504234801 57 226 0.0 0.0 0.00 0.00 0.00 62 1016.5
20260504234302 57 226 0.0 0.0 0.00 0.00 0.00 62 1016.7
20260504233802 57 226 0.0 0.0 0.00 0.00 0.00 62 1016.7
20260504233303 57 230 0.0 0.0 0.00 0.00 0.00 62 1016.7
20260504232802 57 230 0.0 0.0 0.00 0.00 0.00 61 1016.8
20260504232303 57 230 0.0 0.0 0.00 0.00 0.00 61 1016.8
20260504231802 58 230 0.0 0.0 0.00 0.00 0.00 61 1016.8
20260504231301 58 230 0.0 0.0 0.00 0.00 0.00 60 1016.9
20260504230303 58 228 0.0 0.0 0.00 0.00 0.00 60 1016.9
20260504225802 58 228 0.0 0.0 0.00 0.00 0.00 59 1017.1
20260504225304 58 229 0.0 0.0 0.00 0.00 0.00 59 1017.1
20260504224802 58 230 0.0 0.0 0.00 0.00 0.00 59 1017.1
20260504224301 58 230 0.0 0.0 0.00 0.00 0.00 58 1017.1
20260504223802 58 230 0.0 0.0 0.00 0.00 0.00 57 1017.1
20260504223302 58 230 0.0 0.0 0.00 0.00 0.00 57 1017.1
20260504222801 58 234 0.0 0.0 0.00 0.00 0.00 57 1017.2
20260504222304 58 233 0.0 0.0 0.00 0.00 0.00 56 1017.2
20260504221801 59 230 0.0 0.0 0.00 0.00 0.00 56 1017.2
20260504221302 59 231 0.0 0.0 0.00 0.00 0.00 56 1017.3
20260504220802 60 235 0.0 0.0 0.00 0.00 0.00 55 1017.3
20260504220302 60 227 0.0 0.0 0.00 0.00 0.00 55 1017.3
20260504215802 60 231 0.0 0.0 0.00 0.00 0.00 55 1017.3
20260504214801 60 231 0.0 0.0 0.00 0.00 0.00 55 1017.3
20260504214303 60 231 0.0 0.0 0.00 0.00 0.00 55 1017.5
20260504213801 60 231 0.0 0.0 0.00 0.00 0.00 55 1017.5
20260504213302 60 232 0.0 0.0 0.00 0.00 0.00 55 1017.5
20260504212802 60 232 0.0 0.0 0.00 0.00 0.00 55 1017.5
20260504212303 60 232 0.0 0.0 0.00 0.00 0.00 55 1017.5
20260504211802 60 234 0.0 0.0 0.00 0.00 0.00 55 1017.5
20260504211302 60 225 0.0 0.0 0.00 0.00 0.00 55 1017.6
20260504210802 60 224 0.0 0.0 0.00 0.00 0.00 56 1017.6
20260504210302 60 224 0.0 0.0 0.00 0.00 0.00 55 1017.6
20260504205803 60 224 0.0 0.0 0.00 0.00 0.00 55 1017.5
20260504204802 61 224 0.0 0.0 0.00 0.00 0.00 55 1017.5
20260504204301 61 223 0.0 0.0 0.00 0.00 0.00 54 1017.5
20260504203802 61 223 0.0 0.0 0.00 0.00 0.00 54 1017.5
20260504203302 62 223 0.0 0.0 0.00 0.00 0.00 53 1017.5
20260504202802 62 223 0.0 0.0 0.00 0.00 0.00 52 1017.3
20260504202304 63 223 0.0 0.0 0.00 0.00 0.00 51 1017.3
20260504201802 63 230 0.0 0.0 0.00 0.00 0.00 50 1017.3